Terminal Aerodrome Forecast
Issued by NWS Charleston, WV

Home | Current Version | Previous Version | Text Only | Print | Product List | Glossary On
Versions: 1 2 3 4 5 6 7 8 9 10 11 12 13 14 15 16 17 18 19 20 21 22 23 24 25 26 27 28
000
FTUS41 KRLX 290200 AAA
TAFEKN
TAF AMD
KEKN 290242Z 2903/2924 00000KT P6SM BKN080
     FM291500 00000KT P6SM BKN250
     FM291700 19007KT P6SM BKN250
     FM292300 21007KT P6SM BKN100=

USA.gov is the U.S. government's official web portal to all federal, state and local government web resources and services.